Starlink 5484

operational
NORAD ID: 55628 Int'l Des: 2023-021 Owner: SPXS Country: US Constellation: starlink
LEOCIRCULAR

About Starlink 5484

Description loading...

Live Position

Loading 3D Globe...

Upcoming Passes

Altitude History

Altitude vs Time

uPlot chart will show altitude changes over time

Two-Line Element Set

1 55628U 23021A 25304.02543196 .00002018 00000-0 17682-3 0 9996
2 55628 69.9991 171.4704 0002675 271.1916 88.8937 14.98333921148876
Epoch: Oct 31, 2025 • Age: 14 hours

Current Status

Altitude 595.3 km
Velocity 7.56 km/s
Sub-Earth Point -68.30°S, 155.66°W
Launch Date Feb 17, 2023
Age 2.6 years
Type internet

Technical Details

Classification Payload
Mass 305.00 kg
Dry Mass 290.00 kg
Total Mass 305.00 kg
Length 0.20 m
Diameter 2.80 m
Span 9.00 m
Shape Box + pan
Manufacturer SPXS
Bus Type Starlink
Phase Status In Orbit
Owner/State SPXS/US

Large Constellations

Loading constellations...